Weather History for KTIW - October, 2011

Change the Weather History Date:

Thursday, October 20, 2011

  Actual Average Record
Temperature  
Mean Temperature 54 °F -  
Max Temperature 60 °F 55 °F 64 °F (2003)
Min Temperature 48 °F 44 °F 39 °F (1996)
Degree Days  
Heating Degree Days 11    
Growing Degree Days 4 (Base 50)    
Moisture  
Dew Point 48 °F    
Average Humidity 86    
Maximum Humidity 100    
Minimum Humidity 67    
Precipitation  
Precipitation 0.00 in - - ()
Sea Level Pressure  
Sea Level Pressure 30.10 in    
Wind  
Wind Speed 7 mph (SSW)    
Max Wind Speed 12 mph    
Max Gust Speed -    
Visibility 8 miles    
Events Fog    
Averages and records for this station are not official NWS values.
T = Trace of Precipitation, MM = Missing Value Source: NWS Daily Summary

Daily Weather History Graph

Daily Weather History Graph

Search for Another Location

Airport or City:

Trip Planner

Search our weather history database for the weather conditions in past years. The results will help you decide how hot, cold, wet, or windy it might be!

Date:

Astronomy

Oct. 20, 2011 Rise Set
Actual Time 7:35 AM PDT 6:13 PM PDT
Civil Twilight 7:04 AM PDT 6:44 PM PDT
Nautical Twilight 6:28 AM PDT 7:20 PM PDT
Astronomical Twilight 5:53 AM PDT 7:55 PM PDT
Moon No Moon Rise 2:51 PM PDT (10/20)
Length of Visible Light 11h 40m
Length of Day
10h 38m
Last Quarter, 43% of the Moon is Illuminated
Oct 20
Last Quarter
Oct 26
New
Nov 2
First Quarter
Nov 10
Full
Nov 18
Last Quarter

Hourly Weather History & Observations

Time (PDT) Temp. Dew Point Humidity Pressure Visibility Wind Dir Wind Speed Gust Speed Precip Events Conditions
12:46 AM 51.8 °F 48.2 °F 88% 30.09 in 10.0 mi South 10.4 mph - N/A   Overcast
12:53 AM 51.8 °F 48.2 °F 88% 30.09 in 10.0 mi South 11.5 mph - N/A   Overcast
1:53 AM 52.0 °F 48.9 °F 89% 30.09 in 10.0 mi SSW 9.2 mph - N/A   Overcast
2:53 AM 51.8 °F 48.2 °F 88% 30.09 in 10.0 mi SSW 10.4 mph - N/A   Overcast
3:53 AM 52.0 °F 48.0 °F 86% 30.09 in 10.0 mi South 10.4 mph - N/A   Overcast
4:45 AM 51.8 °F 48.2 °F 88% 30.09 in 10.0 mi South 8.1 mph - N/A   Overcast
4:53 AM 51.1 °F 48.0 °F 89% 30.09 in 10.0 mi South 8.1 mph - N/A   Overcast
5:10 AM 51.8 °F 48.2 °F 88% 30.08 in 10.0 mi South 6.9 mph - N/A   Overcast
5:34 AM 51.8 °F 48.2 °F 88% 30.09 in 10.0 mi South 6.9 mph - N/A   Overcast
5:53 AM 52.0 °F 46.9 °F 83% 30.09 in 10.0 mi SSW 6.9 mph - N/A   Overcast
6:31 AM 51.8 °F 46.4 °F 82% 30.09 in 10.0 mi South 8.1 mph - N/A   Overcast
6:43 AM 51.8 °F 46.4 °F 82% 30.09 in 10.0 mi South 8.1 mph - N/A   Overcast
6:53 AM 52.0 °F 46.9 °F 83% 30.09 in 10.0 mi SSW 8.1 mph - N/A   Overcast
7:53 AM 52.0 °F 46.9 °F 83% 30.09 in 10.0 mi SSW 6.9 mph - N/A   Overcast
8:53 AM 53.1 °F 46.9 °F 80% 30.10 in 10.0 mi South 9.2 mph - N/A   Mostly Cloudy
9:53 AM 54.0 °F 48.0 °F 80% 30.11 in 10.0 mi SSE 8.1 mph - N/A   Overcast
10:53 AM 55.0 °F 48.0 °F 77% 30.13 in 10.0 mi SSW 6.9 mph - N/A   Overcast
11:53 AM 55.9 °F 48.0 °F 75% 30.13 in 10.0 mi South 8.1 mph - N/A   Overcast
12:53 PM 60.1 °F 48.9 °F 67% 30.12 in 10.0 mi SW 5.8 mph - N/A   Mostly Cloudy
1:53 PM 57.9 °F 48.0 °F 70% 30.11 in 10.0 mi SW 3.5 mph - N/A   Mostly Cloudy
2:33 PM 59.0 °F 48.2 °F 67% 30.10 in 10.0 mi West 4.6 mph - N/A   Overcast
2:53 PM 59.0 °F 48.9 °F 69% 30.10 in 10.0 mi West 3.5 mph - N/A   Overcast
3:53 PM 59.0 °F 48.9 °F 69% 30.10 in 10.0 mi Calm Calm - N/A   Mostly Cloudy
4:53 PM 55.9 °F 50.0 °F 80% 30.09 in 10.0 mi NNE 3.5 mph - N/A   Scattered Clouds
5:53 PM 55.0 °F 50.0 °F 83% 30.09 in 10.0 mi North 4.6 mph - N/A   Overcast
6:53 PM 54.0 °F 50.0 °F 86% 30.09 in 10.0 mi NNE 3.5 mph - N/A   Overcast
7:53 PM 52.0 °F 50.0 °F 93% 30.09 in 10.0 mi North 3.5 mph - N/A   Clear
8:53 PM 51.1 °F 50.0 °F 96% 30.10 in 10.0 mi Calm Calm - N/A   Clear
9:17 PM 50.0 °F 50.0 °F 100% 30.11 in 8.0 mi NW 3.5 mph - N/A   Scattered Clouds
9:26 PM 50.0 °F 48.2 °F 94% 30.10 in 7.0 mi Calm Calm - N/A   Mostly Cloudy
9:42 PM 50.0 °F 48.2 °F 94% 30.10 in 8.0 mi Calm Calm - N/A   Scattered Clouds
9:53 PM 48.2 °F 48.2 °F 100% 30.10 in 4.0 mi Calm Calm - N/A   Scattered Clouds
9:57 PM 48.2 °F 48.2 °F 100% 30.10 in 1.8 mi Calm Calm - N/A   Scattered Clouds
10:00 PM 48.2 °F 48.2 °F 100% 30.10 in 0.8 mi Calm Calm - N/A   Mist
10:17 PM 48.2 °F 48.2 °F 100% 30.10 in 0.2 mi Calm Calm - N/A Fog Fog
10:53 PM 48.9 °F 48.9 °F 100% 30.11 in 0.2 mi Calm Calm - N/A Fog Fog
11:38 PM 48.2 °F 46.4 °F 93% 30.12 in 0.8 mi Calm Calm - N/A   Mist
11:53 PM 48.0 °F 46.9 °F 96% 30.13 in 0.5 mi Calm Calm - N/A Fog Fog